| time (UTC) | temp F | wind direction | speed knots | gust knots | rain 1hr in | rain 24hr in | rain mn in | humidity % | barometer mb |
| 20260507041032 | 64 | 5 | 1.7 | 2.6 | 0.00 | 0.04 | 0.03 | 96 | 863.4 |
| 20260507040530 | 64 | 5 | 0.9 | 2.6 | 0.00 | 0.04 | 0.03 | 96 | 863.5 |
| 20260507040032 | 64 | 5 | 0.9 | 2.6 | 0.00 | 0.04 | 0.03 | 96 | 863.4 |
| 20260507035528 | 64 | 5 | 0.9 | 2.6 | 0.00 | 0.04 | 0.03 | 96 | 863.4 |
| 20260507035031 | 64 | 5 | 0.9 | 3.5 | 0.00 | 0.04 | 0.03 | 96 | 863.3 |
| 20260507034534 | 64 | 5 | 1.7 | 3.5 | 0.00 | 0.04 | 0.03 | 95 | 863.2 |
| 20260507034029 | 64 | 5 | 1.7 | 2.6 | 0.00 | 0.04 | 0.03 | 95 | 863.2 |
| 20260507033526 | 64 | 5 | 1.7 | 2.6 | 0.00 | 0.04 | 0.03 | 95 | 863.2 |
| 20260507033031 | 64 | 5 | 1.7 | 3.5 | 0.00 | 0.04 | 0.03 | 95 | 862.9 |
| 20260507032524 | 63 | 5 | 1.7 | 3.5 | 0.00 | 0.04 | 0.03 | 95 | 862.8 |
| 20260507032024 | 63 | 5 | 1.7 | 3.5 | 0.00 | 0.04 | 0.03 | 95 | 862.7 |
| 20260507031531 | 63 | 5 | 1.7 | 3.5 | 0.00 | 0.04 | 0.03 | 95 | 862.6 |
| 20260507031028 | 63 | 5 | 1.7 | 3.5 | 0.00 | 0.04 | 0.03 | 95 | 862.7 |
| 20260507030526 | 63 | 5 | 1.7 | 3.5 | 0.00 | 0.04 | 0.03 | 95 | 862.7 |
| 20260507030033 | 64 | 5 | 1.7 | 3.5 | 0.00 | 0.04 | 0.03 | 95 | 862.8 |
| 20260507025523 | 64 | 5 | 1.7 | 3.5 | 0.00 | 0.04 | 0.03 | 95 | 862.8 |
| 20260507025023 | 64 | 5 | 1.7 | 3.5 | 0.00 | 0.04 | 0.03 | 95 | 862.7 |
| 20260507024523 | 64 | 5 | 1.7 | 2.6 | 0.00 | 0.04 | 0.03 | 95 | 862.6 |
| 20260507024022 | 64 | 5 | 1.7 | 2.6 | 0.00 | 0.04 | 0.03 | 95 | 862.5 |
| 20260507023522 | 64 | 5 | 1.7 | 3.5 | 0.00 | 0.04 | 0.03 | 95 | 862.5 |
| 20260507023022 | 64 | 5 | 1.7 | 3.5 | 0.00 | 0.04 | 0.03 | 95 | 862.4 |
| 20260507022522 | 64 | 5 | 0.9 | 3.5 | 0.00 | 0.04 | 0.03 | 95 | 862.4 |
| 20260507022023 | 64 | 5 | 0.9 | 3.5 | 0.00 | 0.04 | 0.03 | 95 | 862.4 |
| 20260507021540 | 64 | 5 | 1.7 | 2.6 | 0.00 | 0.04 | 0.03 | 95 | 862.3 |
| 20260507021022 | 65 | 5 | 1.7 | 2.6 | 0.00 | 0.04 | 0.03 | 95 | 862.3 |
| 20260507020522 | 65 | 5 | 0.9 | 2.6 | 0.00 | 0.04 | 0.03 | 95 | 862.4 |
| 20260507020024 | 65 | 5 | 0.9 | 2.6 | 0.00 | 0.04 | 0.03 | 95 | 862.4 |
| 20260507015521 | 65 | 5 | 1.7 | 2.6 | 0.00 | 0.04 | 0.03 | 95 | 862.4 |
| 20260507015021 | 65 | 5 | 1.7 | 2.6 | 0.00 | 0.04 | 0.03 | 95 | 862.4 |
| 20260507014523 | 65 | 5 | 0.9 | 2.6 | 0.00 | 0.04 | 0.03 | 95 | 862.5 |
| 20260507014025 | 65 | 5 | 1.7 | 2.6 | 0.00 | 0.04 | 0.03 | 95 | 862.5 |
| 20260507013520 | 65 | 5 | 1.7 | 2.6 | 0.00 | 0.04 | 0.03 | 95 | 862.5 |
| 20260507013020 | 66 | 5 | 1.7 | 2.6 | 0.00 | 0.04 | 0.03 | 95 | 862.4 |
| 20260507012522 | 66 | 5 | 1.7 | 2.6 | 0.00 | 0.04 | 0.03 | 95 | 862.3 |
| 20260507012020 | 66 | 5 | 1.7 | 2.6 | 0.00 | 0.04 | 0.03 | 95 | 862.3 |
| 20260507011528 | 66 | 5 | 0.0 | 0.0 | 0.00 | 0.04 | 0.03 | 95 | 862.2 |
| 20260507011020 | 66 | 5 | 0.0 | 1.7 | 0.00 | 0.04 | 0.03 | 95 | 862.2 |
| 20260507010520 | 66 | 5 | 0.0 | 1.7 | 0.00 | 0.04 | 0.03 | 95 | 862.1 |
| 20260507010029 | 66 | 5 | 0.9 | 2.6 | 0.00 | 0.04 | 0.03 | 95 | 862.0 |
| 20260507005520 | 66 | 5 | 0.9 | 2.6 | 0.00 | 0.05 | 0.03 | 95 | 862.0 |
| 20260507005024 | 66 | 5 | 0.9 | 2.6 | 0.00 | 0.05 | 0.03 | 95 | 862.0 |
| 20260507004521 | 66 | 5 | 0.0 | 0.0 | 0.00 | 0.05 | 0.03 | 95 | 861.9 |
| 20260507004019 | 66 | 5 | 0.0 | 2.6 | 0.00 | 0.05 | 0.03 | 95 | 861.8 |
| 20260507003519 | 66 | 5 | 0.9 | 2.6 | 0.00 | 0.05 | 0.03 | 95 | 861.6 |
| 20260507003019 | 66 | 5 | 0.0 | 0.0 | 0.00 | 0.05 | 0.03 | 95 | 861.8 |
| 20260507002519 | 67 | 5 | 0.0 | 0.9 | 0.00 | 0.05 | 0.03 | 95 | 861.8 |
| 20260507002019 | 67 | 5 | 0.0 | 1.7 | 0.00 | 0.05 | 0.03 | 95 | 861.6 |
| 20260507001519 | 67 | 5 | 0.9 | 1.7 | 0.00 | 0.05 | 0.03 | 95 | 861.5 |
| 20260507001018 | 67 | 5 | 0.9 | 1.7 | 0.00 | 0.05 | 0.03 | 95 | 861.3 |
| 20260507000522 | 67 | 5 | 0.0 | 2.6 | 0.00 | 0.05 | 0.03 | 95 | 861.4 |
| 20260507000018 | 67 | 5 | 0.0 | 4.3 | 0.00 | 0.05 | 0.03 | 95 | 861.8 |
| 20260506235517 | 67 | 5 | 2.6 | 4.3 | 0.00 | 0.05 | 0.03 | 95 | 861.9 |
| 20260506235020 | 67 | 5 | 0.0 | 0.9 | 0.00 | 0.05 | 0.03 | 95 | 861.7 |
| 20260506234517 | 67 | 5 | 0.0 | 0.0 | 0.01 | 0.05 | 0.03 | 95 | 861.3 |
| 20260506234017 | 67 | 5 | 0.0 | 0.0 | 0.01 | 0.05 | 0.03 | 95 | 861.1 |
| 20260506233518 | 67 | 5 | 0.0 | 0.0 | 0.01 | 0.05 | 0.03 | 95 | 861.1 |
| 20260506233017 | 67 | 5 | 0.0 | 2.6 | 0.01 | 0.05 | 0.03 | 95 | 860.9 |
| 20260506232520 | 67 | 5 | 0.0 | 3.5 | 0.01 | 0.05 | 0.03 | 95 | 860.9 |
| 20260506232016 | 67 | 5 | 0.9 | 3.5 | 0.01 | 0.05 | 0.03 | 95 | 860.9 |
| 20260506231519 | 67 | 5 | 0.9 | 3.5 | 0.01 | 0.05 | 0.03 | 95 | 860.9 |
| 20260506231015 | 67 | 5 | 0.0 | 7.0 | 0.01 | 0.05 | 0.03 | 94 | 861.2 |
| 20260506230514 | 68 | 5 | 0.0 | 7.0 | 0.01 | 0.05 | 0.03 | 94 | 861.3 |
| 20260506230014 | 68 | 5 | 1.7 | 12.2 | 0.01 | 0.05 | 0.03 | 94 | 861.0 |
| 20260506225518 | 69 | 5 | 3.5 | 14.8 | 0.01 | 0.05 | 0.03 | 94 | 861.0 |
| 20260506225038 | 70 | 5 | 4.3 | 7.8 | 0.00 | 0.04 | 0.02 | 93 | 861.1 |
| 20260506224517 | 72 | 5 | 0.9 | 3.5 | 0.00 | 0.04 | 0.02 | 94 | 859.8 |
| 20260506224013 | 72 | 5 | 0.0 | 2.6 | 0.00 | 0.04 | 0.02 | 93 | 860.0 |
| 20260506223516 | 72 | 5 | 0.0 | 3.5 | 0.00 | 0.04 | 0.02 | 93 | 860.2 |
| 20260506223017 | 72 | 5 | 0.9 | 3.5 | 0.00 | 0.04 | 0.02 | 93 | 860.1 |
| 20260506222513 | 72 | 5 | 0.0 | 5.2 | 0.00 | 0.04 | 0.02 | 93 | 859.8 |
| 20260506222015 | 73 | 5 | 1.7 | 7.8 | 0.00 | 0.04 | 0.02 | 92 | 860.1 |
| 20260506221513 | 73 | 5 | 3.5 | 7.8 | 0.00 | 0.04 | 0.02 | 92 | 860.0 |
| 20260506221013 | 74 | 5 | 2.6 | 8.7 | 0.00 | 0.04 | 0.02 | 91 | 859.9 |
| 20260506220514 | 74 | 5 | 3.5 | 8.7 | 0.00 | 0.04 | 0.02 | 91 | 860.1 |
| 20260506220022 | 74 | 5 | 0.9 | 4.3 | 0.00 | 0.04 | 0.02 | 89 | 859.8 |
| 20260506215511 | 74 | 5 | 0.9 | 2.6 | 0.00 | 0.04 | 0.02 | 88 | 859.7 |
| 20260506215013 | 73 | 5 | 0.0 | 3.5 | 0.00 | 0.04 | 0.02 | 89 | 859.6 |
| 20260506214511 | 73 | 5 | 1.7 | 3.5 | 0.00 | 0.04 | 0.02 | 89 | 859.8 |
| 20260506214011 | 73 | 5 | 0.0 | 3.5 | 0.00 | 0.04 | 0.02 | 89 | 860.2 |
| 20260506213510 | 73 | 5 | 0.0 | 3.5 | 0.00 | 0.04 | 0.02 | 90 | 860.3 |
| 20260506213007 | 74 | 5 | 0.9 | 2.6 | 0.00 | 0.04 | 0.02 | 89 | 860.5 |
| 20260506212508 | 73 | 5 | 0.0 | 0.9 | 0.00 | 0.04 | 0.02 | 87 | 860.4 |
| 20260506212006 | 73 | 5 | 0.0 | 0.9 | 0.00 | 0.04 | 0.02 | 89 | 860.5 |
| 20260506211505 | 73 | 5 | 0.0 | 0.0 | 0.00 | 0.04 | 0.02 | 90 | 860.7 |
| 20260506211005 | 72 | 5 | 0.0 | 0.0 | 0.00 | 0.04 | 0.02 | 91 | 860.8 |
| 20260506210505 | 72 | 5 | 0.0 | 0.0 | 0.00 | 0.04 | 0.02 | 92 | 860.9 |
| 20260506210006 | 72 | 5 | 0.0 | 0.0 | 0.00 | 0.04 | 0.02 | 93 | 861.0 |
| 20260506205504 | 72 | 5 | 0.0 | 0.0 | 0.00 | 0.04 | 0.02 | 93 | 861.0 |
| 20260506205006 | 71 | 5 | 0.0 | 1.7 | 0.00 | 0.04 | 0.02 | 92 | 861.0 |
| 20260506204505 | 71 | 5 | 0.0 | 3.5 | 0.00 | 0.04 | 0.02 | 92 | 861.0 |
| 20260506204008 | 71 | 5 | 1.7 | 3.5 | 0.00 | 0.04 | 0.02 | 92 | 861.1 |
| 20260506203506 | 71 | 5 | 1.7 | 2.6 | 0.00 | 0.04 | 0.02 | 92 | 861.1 |
| 20260506203013 | 70 | 5 | 0.9 | 2.6 | 0.00 | 0.04 | 0.02 | 93 | 861.2 |
| 20260506202504 | 70 | 5 | 0.0 | 1.7 | 0.00 | 0.04 | 0.02 | 94 | 861.2 |
| 20260506202004 | 70 | 5 | 0.0 | 1.7 | 0.00 | 0.04 | 0.02 | 94 | 861.3 |
| 20260506201508 | 70 | 5 | 0.0 | 1.7 | 0.00 | 0.04 | 0.02 | 94 | 861.4 |
| 20260506201004 | 70 | 5 | 0.0 | 0.0 | 0.00 | 0.04 | 0.02 | 94 | 861.4 |
| 20260506200503 | 70 | 5 | 0.0 | 0.0 | 0.00 | 0.04 | 0.02 | 94 | 861.4 |
| 20260506200004 | 70 | 5 | 0.0 | 0.0 | 0.00 | 0.05 | 0.02 | 94 | 861.4 |
| 20260506195503 | 70 | 5 | 0.0 | 0.0 | 0.00 | 0.05 | 0.02 | 94 | 861.5 |
| 20260506195003 | 70 | 5 | 0.0 | 0.0 | 0.00 | 0.05 | 0.02 | 94 | 861.6 |
| 20260506194503 | 70 | 5 | 0.0 | 0.0 | 0.00 | 0.05 | 0.02 | 94 | 861.5 |
| 20260506194002 | 70 | 5 | 0.0 | 2.6 | 0.00 | 0.05 | 0.02 | 94 | 861.7 |
| 20260506193502 | 70 | 5 | 0.9 | 2.6 | 0.00 | 0.05 | 0.02 | 94 | 861.6 |
| 20260506193002 | 70 | 5 | 0.0 | 2.6 | 0.00 | 0.05 | 0.02 | 95 | 861.7 |
| 20260506192502 | 70 | 5 | 0.0 | 2.6 | 0.00 | 0.05 | 0.02 | 95 | 861.7 |
| 20260506192002 | 69 | 5 | 0.0 | 0.0 | 0.00 | 0.05 | 0.02 | 95 | 861.7 |
| 20260506191502 | 69 | 5 | 0.0 | 1.7 | 0.00 | 0.05 | 0.02 | 95 | 861.9 |
| 20260506191002 | 69 | 5 | 0.0 | 1.7 | 0.00 | 0.05 | 0.02 | 95 | 862.0 |
| 20260506190502 | 69 | 5 | 0.0 | 0.0 | 0.00 | 0.05 | 0.02 | 95 | 862.0 |
| 20260506190006 | 69 | 5 | 0.0 | 1.7 | 0.00 | 0.05 | 0.02 | 95 | 862.0 |
| 20260506185501 | 69 | 5 | 0.0 | 1.7 | 0.00 | 0.05 | 0.02 | 94 | 862.1 |
| 20260506185001 | 69 | 5 | 0.0 | 1.7 | 0.00 | 0.05 | 0.02 | 94 | 862.2 |
| 20260506184501 | 69 | 5 | 0.0 | 1.7 | 0.01 | 0.05 | 0.02 | 94 | 862.2 |
| 20260506184001 | 69 | 5 | 0.0 | 0.9 | 0.01 | 0.05 | 0.02 | 93 | 862.2 |
| 20260506183501 | 70 | 5 | 0.0 | 0.9 | 0.01 | 0.05 | 0.02 | 94 | 862.2 |
| 20260506183001 | 70 | 5 | 0.0 | 0.9 | 0.01 | 0.05 | 0.02 | 93 | 862.2 |
| 20260506182501 | 70 | 5 | 0.0 | 0.0 | 0.01 | 0.05 | 0.02 | 93 | 862.2 |
| 20260506182100 | 70 | 5 | 0.0 | 0.9 | 0.01 | 0.05 | 0.02 | 93 | 862.2 |
| 20260506182002 | 70 | 5 | 0.0 | 1.7 | 0.01 | 0.05 | 0.02 | 93 | 862.2 |
| 20260506181602 | 70 | 5 | 0.0 | 1.7 | 0.01 | 0.05 | 0.02 | 93 | 862.2 |
| 20260506181100 | 71 | 5 | 0.0 | 0.9 | 0.01 | 0.05 | 0.02 | 92 | 862.2 |
| 20260506180602 | 71 | 5 | 0.0 | 0.9 | 0.01 | 0.05 | 0.02 | 92 | 862.3 |
| 20260506180101 | 71 | 5 | 0.0 | 2.6 | 0.01 | 0.05 | 0.02 | 92 | 862.3 |
| 20260506175559 | 72 | 5 | 0.0 | 2.6 | 0.01 | 0.05 | 0.02 | 91 | 862.3 |
| 20260506175059 | 72 | 5 | 0.0 | 3.5 | 0.01 | 0.05 | 0.02 | 90 | 862.3 |
| 20260506175002 | 72 | 5 | 0.0 | 3.5 | 0.01 | 0.05 | 0.02 | 90 | 862.4 |
| 20260506174603 | 72 | 5 | 0.9 | 3.5 | 0.01 | 0.05 | 0.02 | 91 | 862.4 |
| 20260506174100 | 72 | 5 | 0.9 | 3.5 | 0.00 | 0.04 | 0.01 | 91 | 862.4 |
| 20260506173603 | 72 | 5 | 0.0 | 4.3 | 0.00 | 0.04 | 0.01 | 91 | 862.5 |
| 20260506173115 | 72 | 5 | 0.0 | 3.5 | 0.00 | 0.04 | 0.01 | 91 | 862.5 |
| 20260506172602 | 72 | 5 | 0.0 | 3.5 | 0.00 | 0.04 | 0.01 | 91 | 862.4 |
| 20260506172059 | 72 | 5 | 0.0 | 2.6 | 0.00 | 0.04 | 0.01 | 90 | 862.5 |
| 20260506171601 | 72 | 5 | 0.0 | 2.6 | 0.00 | 0.04 | 0.01 | 91 | 862.5 |
| 20260506171059 | 72 | 5 | 0.0 | 3.5 | 0.00 | 0.04 | 0.01 | 90 | 862.4 |
| 20260506170602 | 72 | 5 | 0.9 | 3.5 | 0.00 | 0.04 | 0.01 | 90 | 862.4 |
| 20260506170058 | 73 | 5 | 0.0 | 3.5 | 0.00 | 0.04 | 0.01 | 90 | 862.3 |
| 20260506165558 | 73 | 5 | 0.9 | 4.3 | 0.00 | 0.04 | 0.01 | 89 | 862.4 |
| 20260506165058 | 73 | 5 | 0.0 | 5.2 | 0.00 | 0.04 | 0.01 | 89 | 862.3 |
| 20260506164558 | 73 | 5 | 0.0 | 5.2 | 0.00 | 0.04 | 0.01 | 89 | 862.4 |
| 20260506164057 | 73 | 5 | 1.7 | 5.2 | 0.00 | 0.04 | 0.01 | 88 | 862.4 |
| 20260506163557 | 74 | 5 | 2.6 | 5.2 | 0.00 | 0.04 | 0.01 | 87 | 862.4 |
| 20260506163057 | 74 | 5 | 2.6 | 4.3 | 0.00 | 0.04 | 0.01 | 86 | 862.4 |
| 20260506162557 | 74 | 5 | 1.7 | 7.8 | 0.00 | 0.04 | 0.01 | 85 | 862.4 |
| 20260506162058 | 74 | 5 | 1.7 | 7.8 | 0.00 | 0.04 | 0.01 | 84 | 862.5 |
| 20260506161604 | 74 | 5 | 1.7 | 7.0 | 0.00 | 0.04 | 0.01 | 85 | 862.4 |
| 20260506161054 | 74 | 5 | 0.9 | 3.5 | 0.00 | 0.04 | 0.01 | 85 | 862.5 |
| 20260506160553 | 73 | 5 | 1.7 | 7.0 | 0.00 | 0.04 | 0.01 | 85 | 862.4 |
| 20260506160055 | 73 | 5 | 1.7 | 7.0 | 0.00 | 0.04 | 0.01 | 86 | 862.5 |
| 20260506155553 | 73 | 5 | 0.0 | 4.3 | 0.00 | 0.04 | 0.01 | 85 | 862.4 |
| 20260506155053 | 73 | 5 | 1.7 | 4.3 | 0.00 | 0.04 | 0.01 | 87 | 862.5 |
| 20260506154549 | 73 | 5 | 0.9 | 4.3 | 0.00 | 0.04 | 0.01 | 88 | 862.6 |
| 20260506154049 | 72 | 5 | 1.7 | 8.7 | 0.00 | 0.04 | 0.01 | 89 | 862.5 |
| 20260506153547 | 72 | 5 | 3.5 | 8.7 | 0.00 | 0.04 | 0.01 | 90 | 862.6 |
| 20260506153044 | 71 | 5 | 0.9 | 4.3 | 0.00 | 0.04 | 0.01 | 92 | 862.5 |
| 20260506152543 | 70 | 5 | 0.9 | 4.3 | 0.00 | 0.04 | 0.01 | 93 | 862.5 |
| 20260506152043 | 69 | 5 | 0.0 | 0.0 | 0.00 | 0.04 | 0.01 | 95 | 862.5 |
| 20260506151558 | 68 | 5 | 0.0 | 0.0 | 0.00 | 0.04 | 0.01 | 96 | 862.5 |
| 20260506151041 | 68 | 5 | 0.0 | 1.7 | 0.00 | 0.04 | 0.01 | 96 | 862.5 |
| 20260506150538 | 68 | 5 | 0.9 | 1.7 | 0.00 | 0.04 | 0.01 | 96 | 862.4 |
| 20260506150037 | 67 | 5 | 0.9 | 1.7 | 0.00 | 0.04 | 0.01 | 96 | 862.4 |
| 20260506145536 | 67 | 5 | 0.9 | 1.7 | 0.00 | 0.05 | 0.01 | 96 | 862.4 |
| 20260506145034 | 67 | 5 | 0.9 | 1.7 | 0.00 | 0.05 | 0.01 | 96 | 862.4 |
| 20260506144533 | 67 | 5 | 0.9 | 1.7 | 0.00 | 0.05 | 0.01 | 96 | 862.3 |
| 20260506144041 | 66 | 5 | 0.9 | 1.7 | 0.00 | 0.05 | 0.01 | 96 | 862.3 |
| 20260506143531 | 66 | 5 | 0.9 | 2.6 | 0.00 | 0.05 | 0.01 | 96 | 862.3 |
| 20260506143042 | 66 | 5 | 0.9 | 2.6 | 0.00 | 0.05 | 0.01 | 96 | 862.3 |
| 20260506142528 | 65 | 5 | 1.7 | 2.6 | 0.00 | 0.05 | 0.01 | 96 | 862.3 |
| 20260506142028 | 65 | 5 | 0.9 | 2.6 | 0.00 | 0.05 | 0.01 | 96 | 862.3 |
| 20260506141527 | 65 | 5 | 1.7 | 2.6 | 0.00 | 0.05 | 0.01 | 96 | 862.2 |
| 20260506141026 | 65 | 5 | 1.7 | 2.6 | 0.00 | 0.05 | 0.01 | 96 | 862.2 |
| 20260506140525 | 64 | 5 | 1.7 | 2.6 | 0.00 | 0.05 | 0.01 | 96 | 862.1 |
| 20260506140030 | 64 | 5 | 1.7 | 2.6 | 0.00 | 0.05 | 0.01 | 96 | 862.1 |
| 20260506135522 | 64 | 5 | 1.7 | 2.6 | 0.00 | 0.05 | 0.01 | 96 | 862.1 |
| 20260506135020 | 64 | 5 | 1.7 | 2.6 | 0.00 | 0.05 | 0.01 | 96 | 862.1 |
| 20260506134520 | 63 | 5 | 1.7 | 2.6 | 0.00 | 0.05 | 0.01 | 96 | 862.1 |
| 20260506134018 | 63 | 5 | 1.7 | 3.5 | 0.00 | 0.05 | 0.01 | 96 | 862.1 |
| 20260506133516 | 63 | 5 | 1.7 | 3.5 | 0.00 | 0.05 | 0.01 | 96 | 862.0 |
| 20260506133018 | 63 | 5 | 1.7 | 2.6 | 0.00 | 0.05 | 0.01 | 96 | 862.0 |
| 20260506132518 | 63 | 5 | 1.7 | 2.6 | 0.00 | 0.05 | 0.01 | 96 | 861.9 |
| 20260506132014 | 62 | 5 | 1.7 | 2.6 | 0.00 | 0.05 | 0.01 | 96 | 861.9 |
| 20260506131517 | 62 | 5 | 1.7 | 4.3 | 0.00 | 0.05 | 0.01 | 96 | 861.9 |
| 20260506131015 | 62 | 5 | 1.7 | 4.3 | 0.00 | 0.05 | 0.01 | 96 | 862.0 |
| 20260506130515 | 62 | 5 | 1.7 | 3.5 | 0.00 | 0.05 | 0.01 | 96 | 862.0 |
| 20260506130013 | 62 | 5 | 1.7 | 3.5 | 0.00 | 0.05 | 0.01 | 96 | 862.0 |
| 20260506125511 | 62 | 5 | 1.7 | 3.5 | 0.00 | 0.05 | 0.01 | 96 | 862.0 |
| 20260506125014 | 62 | 5 | 1.7 | 3.5 | 0.00 | 0.05 | 0.01 | 96 | 862.0 |
| 20260506124509 | 61 | 5 | 2.6 | 3.5 | 0.00 | 0.05 | 0.01 | 96 | 861.9 |
| 20260506124009 | 61 | 5 | 2.6 | 3.5 | 0.00 | 0.05 | 0.01 | 96 | 861.9 |
| 20260506123508 | 61 | 5 | 2.6 | 3.5 | 0.00 | 0.05 | 0.01 | 96 | 861.8 |
| 20260506123008 | 61 | 5 | 2.6 | 3.5 | 0.00 | 0.05 | 0.01 | 96 | 861.8 |
| 20260506122507 | 61 | 5 | 2.6 | 3.5 | 0.00 | 0.05 | 0.01 | 96 | 861.7 |
| 20260506122011 | 61 | 5 | 1.7 | 3.5 | 0.00 | 0.05 | 0.01 | 96 | 861.7 |
| 20260506121506 | 61 | 5 | 2.6 | 3.5 | 0.00 | 0.05 | 0.01 | 96 | 861.7 |
| 20260506121005 | 61 | 5 | 2.6 | 3.5 | 0.00 | 0.05 | 0.01 | 96 | 861.6 |
| 20260506120507 | 61 | 5 | 2.6 | 3.5 | 0.01 | 0.05 | 0.01 | 96 | 861.5 |
| 20260506120004 | 61 | 5 | 2.6 | 3.5 | 0.01 | 0.05 | 0.01 | 96 | 861.5 |
| 20260506115503 | 61 | 5 | 1.7 | 3.5 | 0.01 | 0.05 | 0.01 | 96 | 861.5 |
| 20260506115001 | 61 | 5 | 2.6 | 3.5 | 0.01 | 0.05 | 0.01 | 96 | 861.4 |
| 20260506114502 | 61 | 5 | 2.6 | 3.5 | 0.01 | 0.05 | 0.01 | 96 | 861.3 |
| 20260506114003 | 61 | 5 | 2.6 | 3.5 | 0.01 | 0.05 | 0.01 | 96 | 861.3 |
| 20260506113502 | 61 | 5 | 2.6 | 3.5 | 0.01 | 0.05 | 0.01 | 96 | 861.3 |
| 20260506113001 | 61 | 5 | 2.6 | 3.5 | 0.01 | 0.05 | 0.01 | 96 | 861.3 |
| 20260506112501 | 61 | 5 | 2.6 | 3.5 | 0.01 | 0.05 | 0.01 | 96 | 861.3 |
| 20260506112002 | 61 | 5 | 2.6 | 3.5 | 0.01 | 0.05 | 0.01 | 96 | 861.3 |
| 20260506111501 | 61 | 5 | 1.7 | 3.5 | 0.01 | 0.05 | 0.01 | 96 | 861.2 |
| 20260506111002 | 61 | 5 | 1.7 | 3.5 | 0.01 | 0.05 | 0.01 | 96 | 861.1 |
| 20260506110502 | 61 | 5 | 1.7 | 2.6 | 0.00 | 0.04 | 0.00 | 96 | 861.1 |
| 20260506110104 | 61 | 5 | 1.7 | 2.6 | 0.00 | 0.04 | 0.00 | 96 | 861.1 |
| 20260506105600 | 61 | 5 | 1.7 | 2.6 | 0.00 | 0.04 | 0.00 | 96 | 861.1 |
| 20260506105059 | 61 | 5 | 1.7 | 2.6 | 0.00 | 0.04 | 0.00 | 96 | 861.0 |
| 20260506104616 | 61 | 5 | 1.7 | 3.5 | 0.00 | 0.04 | 0.00 | 96 | 861.0 |
| 20260506104059 | 61 | 5 | 1.7 | 3.5 | 0.00 | 0.04 | 0.00 | 95 | 861.0 |
| 20260506103558 | 61 | 5 | 2.6 | 3.5 | 0.00 | 0.04 | 0.00 | 95 | 861.0 |
| 20260506103058 | 61 | 5 | 1.7 | 3.5 | 0.00 | 0.04 | 0.00 | 96 | 861.0 |
| 20260506102558 | 61 | 5 | 2.6 | 3.5 | 0.00 | 0.04 | 0.00 | 96 | 861.0 |
| 20260506102058 | 61 | 5 | 1.7 | 3.5 | 0.00 | 0.04 | 0.00 | 96 | 860.9 |
| 20260506101604 | 61 | 5 | 1.7 | 2.6 | 0.00 | 0.04 | 0.00 | 96 | 860.8 |
| 20260506101057 | 61 | 5 | 1.7 | 3.5 | 0.00 | 0.04 | 0.00 | 96 | 860.7 |
| 20260506100559 | 61 | 5 | 1.7 | 3.5 | 0.00 | 0.04 | 0.00 | 96 | 860.7 |
| 20260506100058 | 61 | 5 | 1.7 | 3.5 | 0.00 | 0.04 | 0.00 | 96 | 860.7 |
| 20260506095559 | 61 | 5 | 2.6 | 3.5 | 0.00 | 0.05 | 0.00 | 96 | 860.7 |
| 20260506095056 | 61 | 5 | 2.6 | 3.5 | 0.00 | 0.05 | 0.00 | 96 | 860.8 |
| 20260506094600 | 61 | 5 | 2.6 | 4.3 | 0.00 | 0.05 | 0.00 | 96 | 860.8 |
| 20260506094057 | 61 | 5 | 2.6 | 4.3 | 0.00 | 0.05 | 0.00 | 96 | 860.8 |
| 20260506093556 | 61 | 5 | 2.6 | 4.3 | 0.00 | 0.05 | 0.00 | 96 | 860.8 |
| 20260506093103 | 61 | 5 | 2.6 | 4.3 | 0.00 | 0.05 | 0.00 | 96 | 860.8 |
| 20260506092555 | 61 | 5 | 2.6 | 4.3 | 0.00 | 0.05 | 0.00 | 96 | 860.8 |
| 20260506092055 | 61 | 5 | 2.6 | 4.3 | 0.00 | 0.05 | 0.00 | 96 | 860.8 |
| 20260506091555 | 61 | 5 | 2.6 | 3.5 | 0.00 | 0.05 | 0.00 | 96 | 860.8 |
| 20260506091055 | 61 | 5 | 2.6 | 3.5 | 0.00 | 0.05 | 0.00 | 96 | 860.8 |
| 20260506090557 | 61 | 5 | 2.6 | 3.5 | 0.00 | 0.05 | 0.00 | 96 | 860.8 |
| 20260506090053 | 61 | 5 | 2.6 | 3.5 | 0.00 | 0.05 | 0.00 | 96 | 860.9 |
| 20260506085552 | 61 | 5 | 2.6 | 3.5 | 0.00 | 0.05 | 0.00 | 96 | 860.9 |
| 20260506085053 | 61 | 5 | 1.7 | 2.6 | 0.00 | 0.05 | 0.00 | 96 | 861.0 |
| 20260506084552 | 61 | 5 | 1.7 | 2.6 | 0.00 | 0.05 | 0.00 | 96 | 861.1 |
| 20260506084052 | 61 | 5 | 1.7 | 3.5 | 0.00 | 0.05 | 0.00 | 96 | 861.1 |
| 20260506083550 | 62 | 5 | 0.9 | 3.5 | 0.00 | 0.05 | 0.00 | 96 | 861.2 |
| 20260506083050 | 61 | 5 | 0.9 | 2.6 | 0.00 | 0.05 | 0.00 | 96 | 861.3 |
| 20260506082551 | 61 | 5 | 0.9 | 2.6 | 0.00 | 0.05 | 0.00 | 96 | 861.3 |
| 20260506082053 | 61 | 5 | 1.7 | 3.5 | 0.00 | 0.05 | 0.00 | 96 | 861.3 |
| 20260506081550 | 62 | 5 | 1.7 | 3.5 | 0.00 | 0.05 | 0.00 | 96 | 861.2 |
| 20260506081049 | 61 | 5 | 1.7 | 3.5 | 0.00 | 0.05 | 0.00 | 96 | 861.3 |
| 20260506080548 | 62 | 5 | 1.7 | 2.6 | 0.00 | 0.05 | 0.00 | 96 | 861.3 |
| 20260506073047 | 62 | 5 | 0.9 | 2.6 | 0.00 | 0.05 | 0.00 | 96 | 861.7 |
| 20260506072544 | 62 | 5 | 0.9 | 2.6 | 0.00 | 0.05 | 0.00 | 96 | 861.8 |
| 20260506072048 | 62 | 5 | 0.9 | 2.6 | 0.00 | 0.05 | 0.00 | 96 | 861.8 |
| 20260506071600 | 62 | 5 | 1.7 | 2.6 | 0.00 | 0.05 | 0.00 | 96 | 861.8 |
| 20260506071045 | 62 | 5 | 1.7 | 2.6 | 0.00 | 0.05 | 0.00 | 96 | 861.8 |
| 20260506070543 | 62 | 5 | 0.9 | 2.6 | 0.00 | 0.05 | 0.00 | 96 | 861.9 |
| 20260506062041 | 62 | 5 | 0.9 | 2.6 | 0.01 | 0.05 | 0.00 | 95 | 861.9 |
| 20260506061540 | 62 | 5 | 0.9 | 2.6 | 0.01 | 0.05 | 0.00 | 95 | 861.9 |
| 20260506061039 | 62 | 5 | 1.7 | 2.6 | 0.01 | 0.05 | 0.00 | 95 | 862.0 |
| 20260506060539 | 63 | 5 | 1.7 | 3.5 | 0.01 | 0.05 | 0.00 | 95 | 862.0 |
| 20260506051036 | 63 | 5 | 1.7 | 2.6 | 0.00 | 0.04 | 0.04 | 95 | 862.5 |
| 20260506050536 | 63 | 5 | 1.7 | 2.6 | 0.00 | 0.04 | 0.04 | 95 | 862.5 |
| 20260506045037 | 64 | 5 | 1.7 | 2.6 | 0.00 | 0.04 | 0.04 | 95 | 862.5 |
| 20260506044535 | 64 | 5 | 1.7 | 2.6 | 0.00 | 0.04 | 0.04 | 95 | 862.6 |
| 20260506044035 | 64 | 5 | 1.7 | 2.6 | 0.00 | 0.04 | 0.04 | 95 | 862.6 |
| 20260506043536 | 64 | 5 | 0.9 | 2.6 | 0.00 | 0.04 | 0.04 | 95 | 862.6 |
| 20260506043036 | 64 | 5 | 0.9 | 2.6 | 0.00 | 0.04 | 0.04 | 95 | 862.6 |
| 20260506042534 | 64 | 5 | 0.9 | 2.6 | 0.00 | 0.04 | 0.04 | 95 | 862.5 |
| 20260506042038 | 65 | 5 | 0.9 | 2.6 | 0.00 | 0.04 | 0.04 | 96 | 862.5 |
| 20260506041545 | 65 | 5 | 0.9 | 2.6 | 0.00 | 0.04 | 0.04 | 96 | 862.6 |